Regional Weather Roundup
Issued by NWS Green Bay, WI

Home | Current Version | Previous Version | Graphics & Text | Print | Product List | Glossary Off
Versions: 1 2 3 4 5 6 7 8 9 10 11 12 13 14 15 16 17 18 19 20 21 22 23 24 25 26 27 28 29 30 31 32 33 34 35 36 37 38 39 40 41 42 43 44 45 46 47 48 49 50

696
ASUS43 KGRB 271111
RWRGRB

NORTH-CENTRAL AND NORTHEAST WISCONSIN REGIONAL WEATHER ROUNDUP
NATIONAL WEATHER SERVICE GREEN BAY WI
600 AM CDT TUE SEP 27 2016

WIZ005-009-010>012-018-019-271200-
NORTH CENTRAL WISCONSIN

CITY           SKY/WX    TMP DP  RH WIND       PRES   REMARKS
IRONWOOD       LGT RAIN  48  47  96 W18G25    29.60F
MANITOWISH WTR DRIZZLE   46  46 100 W10G23    29.62R
ARBOR VITAE    DRIZZLE   49  47  92 W8G17     29.62S
EAGLE RIVER    DRIZZLE   47  47  99 W12G18    29.60S
LAND O LAKES   DRIZZLE   48  46  95 W10G16    29.59F
RHINELANDER    LGT RAIN  48  46  93 W16       29.63F
PHILLIPS       RAIN      46  46  97 W6        29.66S
ANTIGO         CLOUDY    48  44  84 W12       29.65S
TOMAHAWK       DRIZZLE   47  43  86 W9        29.66F
MERRILL        CLOUDY    51  43  73 W13G20    29.67F
$$

WIZ013-073-271200-
NORTHEAST WISCONSIN

CITY           SKY/WX    TMP DP  RH WIND       PRES   REMARKS
IRON MOUNTAIN  CLOUDY    50  45  83 W10       29.56S
MARINETTE      LGT RAIN  53  45  74 W6        29.61F
OCONTO         CLOUDY    50  44  78 W7        29.63S
$$

WIZ017-030-035>037-045-271200-
CENTRAL WISCONSIN

CITY           SKY/WX    TMP DP  RH WIND       PRES   REMARKS
MEDFORD        CLOUDY    49  42  78 W9        29.69S
WAUSAU         CLOUDY    51  42  71 W15G22    29.66F
MOSINEE        NOT AVBL
MARSHFIELD     CLOUDY    51  41  68 W13       29.70F
WISC RAPIDS    CLOUDY    50  42  74 W10       29.73F
STEVENS POINT  CLOUDY    48  41  75 W7        29.70F
WAUPACA        CLOUDY    54  42  63 W14       29.71S
SHAWANO        CLOUDY    54  43  66 W9        29.66S
CLINTONVILLE   NOT AVBL
WAUTOMA        CLOUDY    50  41  71 W9        29.74S
$$

WIZ038-039-048-051-271200-
FOX VALLEY

CITY           SKY/WX    TMP DP  RH WIND       PRES   REMARKS
NWS GREEN BAY  CLOUDY    53  43  68 W13G20    29.66F
APPLETON       CLOUDY    52  39  62 W10       29.68F
OSHKOSH        CLOUDY    51  40  65 W10       29.70F
FOND DU LAC    CLOUDY    50  40  68 W7        29.73F
$$

WIZ022-050-052-271200-
EAST CENTRAL WISCONSIN

CITY           SKY/WX    TMP DP  RH WIND       PRES   REMARKS
EPHRAIM        CLOUDY    54  46  73 W13G21    29.59F
WASHINGTON ISL CLOUDY    55  45  70 W18G26    29.57F
STURGEON BAY   LGT RAIN  53  45  74 W13       29.63F
MANITOWOC      CLOUDY    54  41  61 MISG      29.68F
SHEBOYGAN      MOCLDY    52  39  61 W12       29.71F
$$

LMZ563-521-522-541>543-271200-
LAKESHORE

STATION/POSITION TIME  TEMP    WIND        PRES    VSBY  WAVE
                       AIR SEA DIR/SP/G                  HT/PER
                 (UTC) (F)     (DEG/KT/KT) (MB)    (MI)  (FT/S)
SHEBOYGAN LKSHOR 1100   53     250/ 12/ 14 1005.6F
KEWAUNEE LKSHORE 1000   55     240/  7/ 12 1004.1F
NORTHPORT PIER   1000   56     260/  6/ 16 1002.0F
N MID LAKE BUOY  1050   58 66  250/ 23/ 29 1000.3F         6/ 6
CHAMBERS ISLAND  1000   56     230/ 10/ 21 1002.0F
MENOMINEE LKSHOR 1000   55     240/ 12/ 16 1002.3F
$$




USA.gov is the U.S. government's official web portal to all federal, state and local government web resources and services.